Simultaneous Nadir Overpasses (SNOs) Predictions

Prediction of SNOs between AQUA and NOAA-19 Satellite Orbit:

Table of predicted SNOs for the next 14.0 days since TLE Epoch: 8/7/2015
Index Date (AQUA) Time (AQUA) Lat,Lon (AQUA) SZA (AQUA ) Date (NOAA-19) Time (NOAA-19) Lat,Lon (NOAA-19) SZA (NOAA-19 ) Distance(km) Time Diff (sec)
1 08/09/2015 11:20:03 80.25, -22.58 66.09 08/09/2015 11:20:01 80.26, -22.68 66.11 2.12 2
2 08/11/2015 16:04:23 80.34, -94.51 66.88 08/11/2015 16:03:23 80.35, -94.68 66.93 3.29 60
3 08/11/2015 16:53:46 -80.23, 74.20 113.31 08/11/2015 16:54:24 -80.22, 74.27 113.34 1.28 38
4 08/13/2015 21:38:05 -80.29, 2.55 112.55 08/13/2015 21:37:45 -80.28, 2.64 112.56 1.88 20
5 08/13/2015 22:27:29 80.21, 170.93 67.32 08/13/2015 22:28:38 80.21, 170.88 67.30 1.06 69
6 08/16/2015 03:11:48 80.28, 99.17 68.12 08/16/2015 03:11:59 80.28, 99.17 68.11 0.30 11
7 08/18/2015 07:56:06 80.33, 27.63 68.89 08/18/2015 07:55:19 80.32, 27.75 68.89 2.33 47
8 08/18/2015 08:45:30 -80.24,-163.88 111.26 08/18/2015 08:46:22 -80.24,-163.83 111.29 1.03 52




NCC Satellite Simultaneous Nadir Overpasses (SNOs) Prediction Service
